DW4892 Weather Reports


Display with metric or nautical units.
time (UTC)temp
F
wind
direction
speed
MPH
gust
MPH
rain 1hr
in
rain 24hr
in
rain mn
in
humidity
%
barometer
mb
20260902201528 84 94 3.0 9.0 0.00 0.00 0.00 29 1000.8
20260902200048 85 59 5.0 11.0 0.00 0.00 0.00 30 1001.0
20260902194522 88 40 3.0 9.0 0.00 0.00 0.00 28 1001.2
20260902193015 87 35 4.0 9.0 0.00 0.00 0.00 29 1001.4
20260902191534 88 46 4.0 9.0 0.00 0.00 0.00 28 1001.5
20260902190045 85 40 4.0 8.0 0.00 0.00 0.00 32 1001.8
20260902184520 83 30 3.0 8.0 0.00 0.00 0.00 30 1002.0
20260902183017 84 80 2.0 7.0 0.00 0.00 0.00 31 1002.3
20260902181533 87 49 4.0 8.0 0.00 0.00 0.00 30 1002.6
20260902180029 87 65 2.0 8.0 0.00 0.00 0.00 29 1002.9
20260902174523 86 48 3.0 8.0 0.00 0.00 0.00 27 1003.2
20260902173019 86 48 1.0 5.0 0.00 0.00 0.00 27 1003.4
20260902171558 84 73 2.0 5.0 0.00 0.00 0.00 25 1003.8
20260902170029 84 347 3.0 5.0 0.00 0.00 0.00 27 1004.1
20260902164524 82 61 1.0 6.0 0.00 0.00 0.00 31 1004.1
20260902163021 80 75 1.0 4.0 0.00 0.00 0.00 29 1004.2
20260902161543 79 146 0.0 5.0 0.00 0.00 0.00 31 1004.5
20260902160033 79 108 1.0 5.0 0.00 0.00 0.00 31 1004.7
20260902154528 78 155 1.0 4.0 0.00 0.00 0.00 29 1004.7
20260902153057 75 51 0.0 3.0 0.00 0.00 0.00 30 1004.7
20260902151532 75 200 1.0 6.0 0.00 0.00 0.00 33 1004.9
20260902150026 72 307 0.0 2.0 0.00 0.00 0.00 40 1005.0
20260902144520 71 163 0.0 2.0 0.00 0.00 0.00 44 1005.0
20260902143018 69 297 0.0 2.0 0.00 0.00 0.00 45 1004.8
20260902141537 69 138 1.0 4.0 0.00 0.00 0.00 42 1004.9
20260902140029 67 294 1.0 6.0 0.00 0.00 0.00 43 1004.9
20260902134525 65 290 1.0 4.0 0.00 0.00 0.00 47 1004.8
20260902133020 64 109 1.0 8.0 0.00 0.00 0.00 50 1004.8
20260902131522 62 287 1.0 4.0 0.00 0.00 0.00 56 1004.7
20260902130032 60 18 0.0 3.0 0.00 0.00 0.00 60 1004.5
20260902124522 56 288 0.0 1.0 0.00 0.00 0.00 67 1004.4
20260902123018 56 288 0.0 0.0 0.00 0.00 0.00 69 1004.3
20260902121532 57 288 0.0 1.0 0.00 0.00 0.00 67 1004.1
20260902120025 58 308 0.0 3.0 0.00 0.00 0.00 65 1004.0
20260902114525 60 190 0.0 2.0 0.00 0.00 0.00 63 1003.7
20260902113013 59 199 0.0 2.0 0.00 0.00 0.00 64 1003.7
20260902111539 59 227 0.0 1.0 0.00 0.00 0.00 64 1003.7
20260902110025 62 195 0.0 2.0 0.00 0.00 0.00 58 1003.7
20260902104534 62 294 0.0 2.0 0.00 0.00 0.00 57 1003.7
20260902103017 62 283 0.0 3.0 0.00 0.00 0.00 56 1003.7
20260902101539 62 284 0.0 2.0 0.00 0.00 0.00 58 1003.7
20260902100031 62 282 0.0 2.0 0.00 0.00 0.00 57 1003.8
20260902094524 63 201 0.0 4.0 0.00 0.00 0.00 56 1003.7
20260902093056 63 6 1.0 4.0 0.00 0.00 0.00 55 1003.6
20260902091539 63 283 2.0 4.0 0.00 0.00 0.00 55 1003.6
20260902090024 63 180 0.0 2.0 0.00 0.00 0.00 56 1003.7
20260902084517 63 200 0.0 1.0 0.00 0.00 0.00 58 1003.8
20260902083016 62 194 0.0 1.0 0.00 0.00 0.00 56 1003.8
20260902081532 62 185 0.0 0.0 0.00 0.00 0.00 55 1003.9
20260902080032 62 185 0.0 1.0 0.00 0.00 0.00 57 1004.0
20260902074523 64 275 0.0 2.0 0.00 0.00 0.00 52 1004.0
20260902073019 64 292 0.0 1.0 0.00 0.00 0.00 52 1003.9
20260902071512 64 229 0.0 1.0 0.00 0.00 0.00 53 1003.8
20260902070027 64 288 0.0 2.0 0.00 0.00 0.00 55 1003.8
20260902064522 64 185 0.0 2.0 0.00 0.00 0.00 56 1003.9
20260902063018 64 325 0.0 1.0 0.00 0.00 0.00 54 1003.9
20260902061531 65 190 0.0 1.0 0.00 0.00 0.00 53 1003.9
20260902060023 65 190 0.0 1.0 0.00 0.00 0.00 52 1003.9
20260902054522 64 196 0.0 1.0 0.00 0.00 0.00 60 1003.9
20260902053056 66 210 0.0 2.0 0.00 0.00 0.00 59 1004.1
20260902051529 67 174 0.0 4.0 0.00 0.00 0.00 56 1003.8
20260902050024 68 180 1.0 5.0 0.00 0.00 0.00 56 1003.7
20260902044518 68 218 1.0 6.0 0.00 0.00 0.00 57 1003.8
20260902043013 68 207 1.0 5.0 0.00 0.00 0.00 58 1004.0
20260902041528 70 213 3.0 9.0 0.00 0.00 0.00 54 1004.1
20260902040022 70 210 2.0 6.0 0.00 0.00 0.00 52 1004.3
20260902034519 69 180 1.0 3.0 0.00 0.00 0.00 52 1004.3
20260902033018 70 204 0.0 3.0 0.00 0.00 0.00 51 1004.3
20260902031530 71 180 1.0 3.0 0.00 0.00 0.00 49 1004.2
20260902030025 71 190 1.0 4.0 0.00 0.00 0.00 50 1004.2
20260902024518 69 244 1.0 4.0 0.00 0.03 0.00 53 1003.9
20260902023011 68 69 0.0 2.0 0.00 0.03 0.00 55 1003.5
20260902021534 70 43 1.0 3.0 0.00 0.03 0.00 52 1003.2
20260902020026 70 82 0.0 1.0 0.00 0.03 0.00 52 1003.0
20260902014533 69 61 0.0 1.0 0.00 0.03 0.00 51 1003.0
20260902013056 70 62 0.0 3.0 0.00 0.03 0.00 48 1002.9
20260902011534 72 52 1.0 3.0 0.00 0.03 0.00 47 1002.9
20260902010041 73 56 1.0 3.0 0.00 0.03 0.00 45 1002.9
20260902004521 75 50 1.0 4.0 0.00 0.03 0.00 42 1002.8
20260902003013 76 38 2.0 6.0 0.00 0.03 0.00 38 1002.7
20260902001530 78 48 2.0 6.0 0.00 0.03 0.00 35 1002.7
20260902000036 79 72 2.0 7.0 0.00 0.03 0.00 34 1002.8
20260901234543 78 34 2.0 8.0 0.00 0.03 0.00 35 1002.8
20260901233013 79 54 2.0 6.0 0.00 0.03 0.00 36 1002.6
20260901231543 80 82 1.0 7.0 0.00 0.03 0.00 34 1002.8
20260901230027 79 70 2.0 8.0 0.00 0.03 0.00 35 1002.7
20260901224525 81 48 2.0 9.0 0.00 0.03 0.00 33 1002.6
20260901223029 82 48 2.0 6.0 0.00 0.03 0.00 28 1002.6
20260901221523 83 82 2.0 7.0 0.00 0.03 0.00 26 1002.7
20260901220033 83 35 1.0 4.0 0.00 0.03 0.00 28 1003.0
20260901214522 81 96 1.0 5.0 0.00 0.03 0.00 29 1003.2
20260901213020 82 155 1.0 4.0 0.00 0.03 0.00 28 1003.3
20260901211515 85 200 2.0 7.0 0.00 0.03 0.00 26 1003.5
20260901210031 85 304 1.0 6.0 0.00 0.03 0.00 30 1003.6
20260901204533 86 142 1.0 5.0 0.00 0.03 0.00 27 1003.7
20260901203022 84 165 1.0 8.0 0.00 0.03 0.00 31 1004.0